Minneapolis Flying Cloud, MN

10:37 PM CST on November 19, 2019 (GMT -0600)
Flying Cloud

Weather History for KFCM - September, 2019

Change the Weather History Date:

Wednesday, September 25, 2019

  Actual Average Record
Temperature  
Mean Temperature 62 °F -  
Max Temperature 70 °F 66 °F 82 °F (1999)
Min Temperature 53 °F 45 °F 34 °F (2000)
Degree Days  
Heating Degree Days 4    
Growing Degree Days 12 (Base 50)    
Moisture  
Dew Point 47 °F    
Average Humidity 60    
Maximum Humidity 90    
Minimum Humidity 37    
Precipitation  
Precipitation 0.00 in - - ()
Sea Level Pressure  
Sea Level Pressure 29.73 in    
Wind  
Wind Speed 9 mph (West)    
Max Wind Speed 17 mph    
Max Gust Speed 28 mph    
Visibility 10 miles    
Events      
Averages and records for this station are not official NWS values.
T = Trace of Precipitation, MM = Missing Value Source: NWS Daily Summary

Daily Weather History Graph

Daily Weather History Graph

Search for Another Location

Airport or City:

Astronomy

Sep. 25, 2019 Rise Set
Actual Time 7:04 AM CDT 7:06 PM CDT
Civil Twilight 6:35 AM CDT 7:35 PM CDT
Nautical Twilight 6:00 AM CDT 8:09 PM CDT
Astronomical Twilight 5:25 AM CDT 8:44 PM CDT
Moon 2:45 AM CDT (9/25) 5:50 PM CDT (9/25)
Length of Visible Light 13h 00m
Length of Day
12h 01m
Waning Crescent, 14% of the Moon is Illuminated
Sep 25
Waning Crescent
Sep 28
New
Oct 5
First Quarter
Oct 13
Full
Oct 21
Last Quarter

Hourly Weather History & Observations

Time (CDT) Temp. Dew Point Humidity Pressure Visibility Wind Dir Wind Speed Gust Speed Precip Events Conditions
12:53 AM 63.0 °F 60.1 °F 90% 29.58 in 10.0 mi WSW 6.9 mph - N/A   Clear
1:53 AM 62.1 °F 57.9 °F 86% 29.58 in 10.0 mi WSW 6.9 mph - N/A   Clear
2:53 AM 62.1 °F 55.0 °F 78% 29.59 in 10.0 mi West 6.9 mph - N/A   Clear
3:53 AM 62.1 °F 53.1 °F 72% 29.59 in 10.0 mi West 6.9 mph - N/A   Clear
4:53 AM 60.1 °F 52.0 °F 75% 29.61 in 10.0 mi WNW 11.5 mph - N/A   Clear
5:53 AM 59.0 °F 51.1 °F 75% 29.64 in 10.0 mi WNW 10.4 mph - N/A   Clear
6:53 AM 57.9 °F 50.0 °F 75% 29.67 in 10.0 mi WNW 12.7 mph 18.4 mph N/A   Clear
7:53 AM 57.9 °F 50.0 °F 75% 29.70 in 10.0 mi WNW 9.2 mph - N/A   Clear
8:53 AM 60.1 °F 50.0 °F 69% 29.72 in 10.0 mi WNW 12.7 mph - N/A   Clear
9:53 AM 61.0 °F 48.9 °F 64% 29.75 in 10.0 mi West 8.1 mph - N/A   Clear
10:53 AM 64.9 °F 48.9 °F 56% 29.76 in 10.0 mi West 15.0 mph 26.5 mph N/A   Clear
11:53 AM 66.9 °F 46.9 °F 49% 29.76 in 10.0 mi West 11.5 mph 23.0 mph N/A   Clear
12:53 PM 68.0 °F 46.0 °F 45% 29.76 in 10.0 mi West 12.7 mph 25.3 mph N/A   Partly Cloudy
1:53 PM 68.0 °F 44.1 °F 42% 29.76 in 10.0 mi WSW 12.7 mph 27.6 mph N/A   Mostly Cloudy
2:53 PM 69.1 °F 43.0 °F 39% 29.74 in 10.0 mi West 13.8 mph 25.3 mph N/A   Partly Cloudy
3:53 PM 66.9 °F 42.1 °F 40% 29.75 in 10.0 mi West 11.5 mph 24.2 mph N/A   Scattered Clouds
4:53 PM 68.0 °F 41.0 °F 37% 29.75 in 10.0 mi West 16.1 mph 27.6 mph N/A   Scattered Clouds
5:53 PM 64.9 °F 39.9 °F 40% 29.77 in 10.0 mi WNW 17.3 mph 26.5 mph N/A   Clear
6:53 PM 62.1 °F 41.0 °F 46% 29.79 in 10.0 mi WNW 11.5 mph 20.7 mph N/A   Partly Cloudy
7:53 PM 59.0 °F 42.1 °F 53% 29.81 in 10.0 mi West 4.6 mph - N/A   Clear
8:53 PM 57.9 °F 42.1 °F 56% 29.85 in 10.0 mi WSW 6.9 mph - N/A   Clear
9:53 PM 55.9 °F 42.1 °F 60% 29.86 in 10.0 mi WSW 6.9 mph - N/A   Clear
10:53 PM 54.0 °F 42.1 °F 64% 29.87 in 10.0 mi WSW 6.9 mph - N/A   Clear
11:53 PM 53.1 °F 42.1 °F 66% 29.88 in 10.0 mi WSW 8.1 mph - N/A   Clear